Ouarzazate, Morocco

8:42 AM WET on February 06, 2016 (GMT +0000)
Ouarzazate

Weather History for GMMZ - February, 2013

Change the Weather History Date:

Monday, February 25, 2013

  Actual Average Record
Temperature  
Mean Temperature 58 °F -  
Max Temperature 77 °F 71 °F - ()
Min Temperature 39 °F 44 °F - ()
Degree Days  
Heating Degree Days 7    
Growing Degree Days 8 (Base 50)    
Moisture  
Dew Point 4 °F    
Average Humidity 10    
Maximum Humidity 19    
Minimum Humidity 4    
Precipitation  
Precipitation 0.00 in 0.01 in - ()
Sea Level Pressure  
Sea Level Pressure 30.00 in    
Wind  
Wind Speed 3 mph ()    
Max Wind Speed 10 mph    
Max Gust Speed -    
Visibility 10.5 miles    
Events      
T = Trace of Precipitation, MM = Missing Value Source: Averaged Metar Reports

Daily Weather History Graph

Daily Weather History Graph

Search for Another Location

Airport or City:

Trip Planner

Search our weather history database for the weather conditions in past years. The results will help you decide how hot, cold, wet, or windy it might be!

Date:

Astronomy

Feb. 25, 2013 Rise Set
Actual Time 6:58 AM WET 6:23 PM WET
Civil Twilight 6:34 AM WET 6:47 PM WET
Nautical Twilight 6:06 AM WET 7:15 PM WET
Astronomical Twilight 5:38 AM WET 7:43 PM WET
Moon 6:18 PM WET (2/25) 6:22 AM WET (2/25)
Length of Visible Light 12h 13m
Length of Day
11h 24m
Full, 100% of the Moon is Illuminated
Feb 25
Full
Feb 25
Full
Mar 4
Last Quarter
Mar 11
New
Mar 19
First Quarter

Hourly Weather History & Observations

Time (WET) Temp. Windchill Dew Point Humidity Pressure Visibility Wind Dir Wind Speed Gust Speed Precip Events Conditions
12:00 AM 49 °F - 0 °F 5%  in 12 mi NW 3.5 mph - -  
12:00 AM 48.2 °F - -2.2 °F 12% 30.06 in - Variable 3.5 mph - N/A   Clear
1:00 AM 53.6 °F - -4.0 °F 9% 30.04 in - WSW 6.9 mph - N/A   Clear
2:00 AM 53.6 °F - -2.2 °F 10% 30.04 in - SW 6.9 mph - N/A   Clear
3:00 AM 50 °F - -5 °F 4%  in 12 mi Calm Calm - -  
3:00 AM 50.0 °F - -4.0 °F 11% 30.04 in - Variable 1.2 mph - N/A   Clear
4:00 AM 50.0 °F - -4.0 °F 11% 30.01 in - Variable 2.3 mph - N/A   Clear
5:00 AM 48.2 °F - 1.4 °F 15% 30.01 in - Variable 3.5 mph - N/A   Clear
6:00 AM 44 °F - 0 °F 7%  in 12 mi NW 2.3 mph - -  
6:00 AM 42.8 °F 41.1 °F -0.4 °F 16% 30.01 in - Variable 3.5 mph - N/A   Clear
7:00 AM 41.0 °F 39.0 °F -4.0 °F 15% 30.04 in - Variable 3.5 mph - N/A   Clear
8:00 AM 39.2 °F - -0.4 °F 19% 30.04 in - Variable 2.3 mph - N/A   Clear
9:00 AM 48 °F - -0 °F 5%  in 12 mi NE 1.2 mph - -  
9:00 AM 48.2 °F - -0.4 °F 13% 30.06 in - Variable 1.2 mph - N/A   Clear
10:00 AM 53.6 °F - 3.2 °F 13% 30.06 in - Calm Calm - N/A   Clear
11:00 AM 60.8 °F - 5.0 °F 11% 30.06 in - Variable 2.3 mph - N/A   Clear
12:00 PM 65 °F - 5 °F 4%  in 12 mi ENE 1.2 mph - -  
12:00 PM 66.2 °F - 5.0 °F 9% 30.04 in - Variable 1.2 mph - N/A   Clear
1:00 PM 69.8 °F - 5.0 °F 8% 30.01 in - Calm Calm - N/A   Clear
2:00 PM 71.6 °F - 8.6 °F 9% 29.95 in - Variable 2.3 mph - N/A   Clear
3:00 PM 74 °F - 10 °F 4%  in 0 mi Calm Calm - -  
3:00 PM 75.2 °F - 10.4 °F 8% 29.92 in - Variable 3.5 mph - N/A   Clear
4:00 PM 77.0 °F - 10.4 °F 8% 29.92 in - Variable 2.3 mph - N/A   Clear
5:00 PM 77.0 °F - 14.0 °F 9% 29.89 in - Calm Calm - N/A   Clear
6:00 PM 75 °F - 15 °F 4%  in 12 mi WNW 10.4 mph - -  
7:00 PM 71.6 °F - 14.0 °F 11% 29.92 in - Variable 2.3 mph - N/A   Clear
8:00 PM 69.8 °F - 12.2 °F 11% 29.95 in - South 4.6 mph - N/A   Clear
9:00 PM 66 °F - 12 °F 5%  in 12 mi SSE 2.3 mph - -  
9:00 PM 66.2 °F - 12.2 °F 12% 29.98 in - Variable 2.3 mph - N/A   Clear
10:00 PM 64.4 °F - 12.2 °F 13% 29.95 in - Variable 2.3 mph - N/A   Clear
11:00 PM 59.0 °F - 10.4 °F 15% 29.95 in - Variable 1.2 mph - N/A   Clear